Fremont, MI

7:53 PM EDT on September 20, 2019 (GMT -0400)
Fremont

Weather History for KFFX - June, 2019

Change the Weather History Date:

Sunday, June 9, 2019

  Actual Average (KMKG) Record (KMKG)
Temperature  
Mean Temperature 63 °F -  
Max Temperature 67 °F 73 °F 90 °F (1968)
Min Temperature 59 °F 52 °F 38 °F (1969)
Degree Days  
Heating Degree Days 2    
Growing Degree Days 13 (Base 50)    
Moisture  
Dew Point 58 °F    
Average Humidity 82    
Maximum Humidity 100    
Minimum Humidity 45    
Precipitation  
Precipitation 0.00 in - - ()
Sea Level Pressure  
Sea Level Pressure 30.01 in    
Wind  
Wind Speed 6 mph ()    
Max Wind Speed 10 mph    
Max Gust Speed -    
Visibility 7.1 miles    
Events Rain    
Averages and records for this station are not official NWS values.
T = Trace of Precipitation, MM = Missing Value Source: Averaged Metar Reports

Daily Weather History Graph

Daily Weather History Graph

Search for Another Location

Airport or City:

Astronomy

Jun. 09, 2019 Rise Set
Actual Time 6:03 AM EDT 9:23 PM EDT
Civil Twilight 5:27 AM EDT 9:58 PM EDT
Nautical Twilight 4:41 AM EDT 10:45 PM EDT
Astronomical Twilight 3:44 AM EDT 11:42 PM EDT
Moon 12:47 PM EDT (6/9) 1:57 AM EDT (6/9)
Length of Visible Light 16h 31m
Length of Day
15h 20m
Waxing Crescent, 43% of the Moon is Illuminated
Jun 9
Waxing Crescent
Jun 10
First Quarter
Jun 17
Full
Jun 25
Last Quarter
Jul 2
New

Hourly Weather History & Observations

Time (EDT) Temp. Dew Point Humidity Pressure Visibility Wind Dir Wind Speed Gust Speed Precip Events Conditions
12:17 AM 67.5 °F 45.9 °F 46% 30.04 in 10.0 mi East 4.6 mph - N/A   Clear
12:35 AM 67.3 °F 45.5 °F 45% 30.05 in 10.0 mi ESE 4.6 mph - N/A   Clear
12:36 AM 67.1 °F 45.5 °F 46% 30.05 in 10.0 mi ESE 4.6 mph - N/A   Clear
12:55 AM 66.6 °F 46.0 °F 48% 30.05 in 10.0 mi ESE 3.5 mph - N/A   Clear
1:15 AM 67.1 °F 45.7 °F 46% 30.05 in 10.0 mi East 5.8 mph - N/A   Clear
1:38 AM 64.9 °F 48.4 °F 55% 30.05 in 10.0 mi East 5.8 mph - N/A   Clear
1:56 AM 65.3 °F 47.3 °F 52% 30.04 in 10.0 mi East 6.9 mph - N/A   Clear
2:15 AM 66.4 °F 45.9 °F 48% 30.04 in 10.0 mi East 8.1 mph - N/A   Clear
2:35 AM 66.2 °F 45.9 °F 48% 30.04 in 10.0 mi East 6.9 mph - N/A   Clear
2:36 AM 66.2 °F 46.0 °F 48% 30.04 in 10.0 mi East 8.1 mph - N/A   Clear
2:59 AM 66.0 °F 48.4 °F 53% 30.04 in 10.0 mi East 6.9 mph - N/A   Clear
3:17 AM 65.7 °F 49.5 °F 56% 30.03 in 10.0 mi East 9.2 mph - N/A   Clear
3:35 AM 65.5 °F 50.0 °F 57% 30.03 in 10.0 mi East 8.1 mph - N/A   Clear
3:55 AM 65.7 °F 50.0 °F 57% 30.03 in 10.0 mi East 8.1 mph - N/A   Clear
3:56 AM 65.7 °F 50.0 °F 57% 30.03 in 10.0 mi East 9.2 mph - N/A   Clear
4:15 AM 65.5 °F 50.0 °F 57% 30.03 in 10.0 mi East 8.1 mph - N/A   Clear
4:38 AM 65.3 °F 50.5 °F 59% 30.02 in 10.0 mi East 10.4 mph - N/A   Clear
4:56 AM 65.3 °F 50.5 °F 59% 30.02 in 10.0 mi East 8.1 mph - N/A   Clear
5:15 AM 64.9 °F 50.2 °F 59% 30.03 in 10.0 mi East 5.8 mph - N/A   Clear
5:35 AM 64.6 °F 50.2 °F 60% 30.03 in 10.0 mi East 10.4 mph - N/A   Mostly Cloudy
5:36 AM 64.6 °F 50.2 °F 60% 30.03 in 10.0 mi East 10.4 mph - N/A   Mostly Cloudy
5:59 AM 64.6 °F 50.2 °F 60% 30.02 in 10.0 mi East 9.2 mph - N/A   Overcast
6:17 AM 64.6 °F 50.2 °F 60% 30.02 in 10.0 mi East 8.1 mph - N/A   Overcast
6:35 AM 64.6 °F 50.0 °F 59% 30.02 in 10.0 mi East 6.9 mph - N/A   Overcast
6:36 AM 64.6 °F 50.0 °F 59% 30.02 in 10.0 mi East 5.8 mph - N/A   Overcast
6:55 AM 64.4 °F 50.0 °F 59% 30.03 in 10.0 mi East 5.8 mph - N/A   Overcast
7:15 AM 64.4 °F 50.2 °F 60% 30.03 in 10.0 mi East 6.9 mph - N/A   Overcast
7:38 AM 64.4 °F 50.4 °F 60% 30.04 in 10.0 mi East 6.9 mph - N/A   Overcast
7:56 AM 64.6 °F 50.4 °F 60% 30.04 in 10.0 mi ESE 6.9 mph - N/A   Overcast
8:15 AM 64.4 °F 51.3 °F 62% 30.04 in 10.0 mi ESE 5.8 mph - N/A   Overcast
8:16 AM 64.4 °F 51.3 °F 62% 30.04 in 10.0 mi ESE 6.9 mph - N/A   Overcast
8:35 AM 62.2 °F 54.5 °F 76% 30.05 in 5.0 mi ESE 10.4 mph - N/A   Heavy Drizzle
8:59 AM 59.9 °F 56.5 °F 88% 30.04 in 5.0 mi ESE 5.8 mph - N/A Rain Heavy Rain
9:17 AM 60.1 °F 58.5 °F 94% 30.03 in 10.0 mi ENE 9.2 mph - N/A Rain Rain
9:35 AM 60.3 °F 59.0 °F 96% 30.04 in 10.0 mi East 4.6 mph - N/A   Overcast
9:55 AM 60.8 °F 59.0 °F 94% 30.04 in 10.0 mi East 6.9 mph - N/A   Overcast
9:56 AM 60.8 °F 59.0 °F 94% 30.04 in 10.0 mi East 6.9 mph - N/A   Overcast
10:15 AM 61.5 °F 59.5 °F 93% 30.04 in 10.0 mi East 5.8 mph - N/A   Overcast
10:20 AM 61.7 °F 59.5 °F 93% 30.03 in 10.0 mi East 4.6 mph - N/A   Overcast
10:37 AM 62.1 °F 60.1 °F 93% 30.03 in 10.0 mi ESE 3.5 mph - N/A   Overcast
10:56 AM 63.1 °F 60.6 °F 91% 30.03 in 10.0 mi ESE 4.6 mph - N/A   Overcast
11:15 AM 63.5 °F 59.5 °F 87% 30.03 in 10.0 mi ESE 6.9 mph - N/A   Overcast
11:35 AM 62.1 °F 60.6 °F 95% 30.03 in 5.0 mi ESE 6.9 mph - N/A Rain Rain
11:36 AM 62.1 °F 60.8 °F 96% 30.03 in 5.0 mi ESE 8.1 mph - N/A Rain Rain
11:59 AM 61.9 °F 61.0 °F 97% 30.03 in 5.0 mi ESE 4.6 mph - N/A Rain Rain
12:17 PM 62.1 °F 61.3 °F 97% 30.03 in 5.0 mi ESE 6.9 mph - N/A Rain Rain
12:35 PM 63.0 °F 61.9 °F 96% 30.03 in 10.0 mi East 4.6 mph - N/A Rain Rain
12:36 PM 63.0 °F 61.9 °F 96% 30.03 in 10.0 mi East 3.5 mph - N/A Rain Rain
12:55 PM 63.7 °F 62.2 °F 95% 30.03 in 10.0 mi ESE 5.8 mph - N/A Rain Light Rain
1:15 PM 64.4 °F 63.0 °F 95% 30.03 in 7.0 mi ESE 8.1 mph - N/A Rain Rain
1:38 PM 64.9 °F 64.2 °F 98% 30.01 in 5.0 mi ESE 6.9 mph - N/A Rain Light Rain
1:56 PM 65.5 °F 64.6 °F 97% 30.01 in 7.0 mi ESE 8.1 mph - N/A   Drizzle
2:15 PM 65.7 °F 64.8 °F 97% 30.01 in 7.0 mi ESE 6.9 mph - N/A Rain Light Rain
2:16 PM 65.7 °F 64.6 °F 96% 30.01 in 7.0 mi ESE 6.9 mph - N/A Rain Light Rain
2:35 PM 65.8 °F 64.9 °F 97% 30.01 in 7.0 mi SE 6.9 mph - N/A   Drizzle
2:59 PM 65.5 °F 64.8 °F 98% 30.00 in 7.0 mi ESE 5.8 mph - N/A Rain Rain
3:17 PM 65.3 °F 64.8 °F 98% 30.00 in 4.0 mi ESE 6.9 mph - N/A Rain Heavy Rain
3:35 PM 65.7 °F 65.3 °F 99% 30.00 in 4.0 mi ESE 8.1 mph - N/A   Heavy Drizzle
3:55 PM 65.7 °F 65.3 °F 99% 30.00 in 5.0 mi ESE 5.8 mph - N/A Rain Rain
3:56 PM 65.7 °F 65.3 °F 99% 30.00 in 5.0 mi ESE 6.9 mph - N/A Rain Light Rain
4:15 PM 65.8 °F 65.5 °F 99% 30.00 in 5.0 mi ESE 5.8 mph - N/A Rain Rain
4:20 PM 66.2 °F 65.7 °F 98% 30.00 in 5.0 mi ESE 6.9 mph - N/A   Drizzle
4:38 PM 66.4 °F 65.8 °F 98% 29.99 in 4.0 mi ESE 5.8 mph - N/A Rain Rain
4:56 PM 66.6 °F 66.2 °F 99% 29.99 in 3.0 mi ESE 4.6 mph - N/A Rain Rain
5:15 PM 66.2 °F 65.8 °F 99% 29.99 in 2.5 mi ESE 6.9 mph - N/A Rain Rain
5:59 PM 66.2 °F 65.8 °F 99% 29.98 in 2.5 mi ESE 3.5 mph - N/A Rain Heavy Rain
6:17 PM 66.2 °F 65.8 °F 99% 29.98 in 2.0 mi ESE 4.6 mph - N/A Rain Heavy Rain
6:35 PM 65.8 °F 65.7 °F 99% 29.98 in 2.5 mi East 3.5 mph - N/A Rain Heavy Rain
6:36 PM 65.8 °F 65.7 °F 99% 29.98 in 2.5 mi East 3.5 mph - N/A Rain Heavy Rain
6:55 PM 65.8 °F 65.7 °F 99% 29.97 in 2.5 mi East 3.5 mph - N/A Rain Rain
6:56 PM 65.8 °F 65.7 °F 99% 29.97 in 2.5 mi East 3.5 mph - N/A Rain Rain
7:15 PM 65.8 °F 65.7 °F 99% 29.97 in 1.5 mi East 4.6 mph - N/A Rain Heavy Rain
7:38 PM 65.7 °F 65.5 °F 99% 29.96 in 2.0 mi East 4.6 mph - N/A Rain Heavy Rain
7:55 PM 65.8 °F 65.7 °F 99% 29.96 in 2.5 mi East 5.8 mph - N/A Rain Rain
8:15 PM 66.0 °F 65.8 °F 99% 29.96 in 3.0 mi East 5.8 mph - N/A Rain Heavy Rain
8:16 PM 66.0 °F 65.8 °F 99% 29.96 in 3.0 mi East 5.8 mph - N/A Rain Heavy Rain
8:35 PM 65.8 °F 65.8 °F 100% 29.96 in 2.5 mi East 3.5 mph - N/A Rain Heavy Rain
8:59 PM 66.2 °F 65.8 °F 99% 29.95 in 2.5 mi East 3.5 mph - N/A Rain Heavy Rain
9:16 PM 66.2 °F 66.0 °F 99% 29.95 in 4.0 mi Calm Calm - N/A Rain Rain
9:35 PM 66.2 °F 66.2 °F 100% 29.95 in 5.0 mi SE 3.5 mph - N/A Rain Rain
9:36 PM 66.2 °F 66.2 °F 100% 29.95 in 5.0 mi SE 3.5 mph - N/A Rain Rain
9:55 PM 66.2 °F 65.8 °F 99% 29.95 in 5.0 mi SE 4.6 mph - N/A Rain Rain
10:15 PM 66.0 °F 65.8 °F 99% 29.95 in 4.0 mi Calm Calm - N/A   Drizzle
10:38 PM 66.0 °F 65.8 °F 99% 29.95 in 4.0 mi SE 3.5 mph - N/A   Drizzle
10:56 PM 65.8 °F 65.7 °F 99% 29.94 in 4.0 mi SSE 3.5 mph - N/A Rain Rain
11:15 PM 65.7 °F 65.7 °F 100% 29.93 in 4.0 mi SE 4.6 mph - N/A Rain Rain
11:35 PM 65.7 °F 65.7 °F 100% 29.93 in 5.0 mi SSE 3.5 mph - N/A Rain Rain
11:59 PM 65.7 °F 65.7 °F 100% 29.92 in 5.0 mi Calm Calm - N/A   Drizzle